User: anonymous   Login
Location: Tierz
(42.1336°N, 0.3549°W)
Time: 10:51:28
(UTC+00:00)
Language:

SL-08 R/B - Orbit

View from above orbital plane
View from above orbital plane
View from above satellite
View from above satellite

Ground track
Ground track

The orbit data is extracted from the following two-line orbital elements,

1 28381U 04028B   21016.73851365  .00000081  00000-0  65760-4 0  9991
2 28381  82.9571  81.5891 0030659 313.9467 163.8538 13.78254432829343
Epoch (UTC): 16 January 2021 17:43:27
Eccentricity: 0.0030659
inclination: 82.9571°
perigee height: 947 km
apogee height: 992 km
right ascension of ascending node: 81.5891°
argument of perigee: 313.9467°
revolutions per day: 13.78254432
mean anomaly at epoch: 163.8538°
orbit number at epoch: 82934

The dashed part of the orbit path shows where the satellite is in the earth's shadow,  

DLR